User: anonymous   Login
Location: Maiden_LMO
(35.5760°N, 81.2120°W)
Time: 15:52:23
(UTC-05:00)
Language:

Cosmos 2278 Rocket - Orbit

View from above orbital plane
View from above orbital plane
View from above satellite
View from above satellite

Ground track
Ground track

The orbit data is extracted from the following two-line orbital elements,

1 23088U 94023B   15059.93857094 -.00000213  00000-0 -85784-4 0  9998
2 23088 070.9982 243.4754 0005778 284.4754 075.5727 14.14610206 76852
Epoch (UTC): 28 February 2015 22:31:32
Eccentricity: 0.0005778
inclination: 70.9982°
perigee height: 839 km
apogee height: 848 km
right ascension of ascending node: 243.4754°
argument of perigee: 284.4754°
revolutions per day: 14.14610206
mean anomaly at epoch: 75.5727°
orbit number at epoch: 7685

The dashed part of the orbit path shows where the satellite is in the earth's shadow,  

DLR